Weather in Bol'shaya Koklala

Russia / Mari El Republic     56°53′08″N   49°06′22″E
temp.,
°C
wind,
m/s
gust,
m/s
humid.,
%
clouds,
%
prec.,
mm/h
press.,
hPa
HPBL,
m
27 february, sat
sat2700:00−15se81494100 4.1 1002684
03:00−15ese71294100 5.9 1001568
06:00−16e71295100 1.0 1000526
09:00−15ene61094100 1.6 1001547
12:00−14ene6991100 0.2 1002599
15:00−13ne6890100 0.4 1004641
18:00−14nne5109299 0.1 1005396
21:00−16n5119693 0.1 1006270
28 february, sun
sun2800:00−19n499665 0.0 1007171
03:00−20n499952 0.0 1008143
06:00−21n479970 0.0 1009125
09:00−19n479665 0.0 1010235
12:00−16n579270 0.0 1011371
15:00−14n579184 0.0 1012528
18:00−18n3497100 0.0 101459
21:00−20n349872 0.0 101729
1 march, mon
mon100:00−22n34982 0.0 101832
03:00−23nnw33981 0.0 102023
06:00−24n23980 0.0 102120
09:00−20nw11956 0.0 102267
12:00−15w238818 0.0 1021243
15:00−13wsw359121 0.0 1020284
18:00−14sw489572 0.0 1017185
21:00−13sw5109586 0.0 1015259
2 march, tue
tue200:00−12ssw61294100 0.0 1011281
03:00−9ssw81493100 0.5 1007395
06:00−8ssw81493100 0.8 1002444
09:00−5ssw71294100 1.4 999441
12:00−1ssw61096100 0.4 998470
15:000wnw4799100 1.1 997440
18:00−1w3799100 0.9 997290
21:00−3nnw51194100 1.9 998418
3 march, wed
wed300:00−6nw499597 0.1 999186
03:00−9nw479495 0.1 1000121
06:00−9nw349882 0.0 100077
09:00−6nnw489586 0.1 1002295
12:00−4nnw699392 0.2 1003647
15:00−5nnw7118596 0.4 1005780
18:00−9nw4109026 0.0 1007178
21:00−8nw5129444 0.1 1009470